Regional Weather Roundup
Issued by NWS

Home | Current Version | Previous Version | Text Only | Print | Product List | Glossary Off
Versions: 1 2 3 4 5 6 7 8 9 10 11 12 13 14 15 16 17 18 19 20 21 22 23 24 25 26 27 28 29 30 31 32 33 34 35 36 37 38 39 40 41 42 43 44 45 46 47 48 49 50

000
ASUS45 KBOI 050110
RWRID
WEATHER ROUNDUP FOR IDAHO
NATIONAL WEATHER SERVICE BOISE ID
700 PM MDT MON MAY 04 2015

NOTE: "FAIR" INDICATES FEW OR NO CLOUDS BELOW 12000 FEET
WITH NO SIGNIFICANT WEATHER AND/OR OBSTRUCTIONS TO VISIBILITY

IDZ012-014-050200-
SOUTHWEST IDAHO


CITY           SKY/WX    TMP DP  RH WIND       PRES   REMARKS
BOISE          MOSUNNY   81  35  19 W9        29.72F
CALDWELL       MOSUNNY   82  39  21 N6        29.72F
MOUNTAIN HOME  PTSUNNY   80  32  17 S15       29.73F
$$

IDZ016-017-050200-
SOUTHCENTRAL IDAHO


CITY           SKY/WX    TMP DP  RH WIND       PRES   REMARKS
BURLEY         PTSUNNY   65  43  44 SW5       29.81F
JEROME         CLOUDY    71  37  28 S8        29.82F
TWIN FALLS     CLOUDY    71  37  28 S14       29.82F
$$

IDZ019>023-050200-
SOUTHEAST IDAHO


CITY           SKY/WX    TMP DP  RH WIND       PRES   REMARKS
IDAHO FALLS    PTSUNNY   73  29  19 VRB5      29.86S
POCATELLO      MOSUNNY   73  29  19 S13       29.85F
REXBURG        PTSUNNY   71  29  21 S7        29.86F
$$

IDZ006-010-011-018-031-032-050200-
CENTRAL IDAHO MOUNTAINS


CITY           SKY/WX    TMP DP  RH WIND       PRES   REMARKS
MCCALL         MOSUNNY   69  26  20 S12       29.84F
HAILEY         CLOUDY    64  37  36 SE8       29.92S
STANLEY          N/A     62  30  29 S6        29.96S
SALMON           N/A     68  37  32 N3        29.79S
CHALLIS        MOSUNNY   66  33  29 S8        29.86F
$$

IDZ002-004-006-007-026-050200-
NORTHERN IDAHO


CITY           SKY/WX    TMP DP  RH WIND       PRES   REMARKS
LEWISTON       MOSUNNY   80  31  16 NW14G23   29.72S
LOWELL           N/A     69  46  43 CALM      29.67F
COEUR D`ALENE  SUNNY     73  28  19 W3        29.76F
MULLAN PASS    SUNNY     58  21  24 VRB6      29.89F
$$


USA.gov is the U.S. government's official web portal to all federal, state and local government web resources and services.